SCP
2 2 3 3 3 2 1 1 1 1 1 0 0 0 0 0 0 1 1 1 1 1 0 0 0 0 0 0 0 0 0 0 0 0 0 0 0 0 0 0 0 0 0
2 3 3 3 3 1 1 1 1 1 1 0 0 0 0 0 0 0 1 1 1 1 0 0 0 0 0 0 0 0 0 0 0 0 0 0 0 0 0 0 0 0 0
2 3 3 3 2 1 0 1 1 1 0 0 0 0 0 0 0 0 0 1 1 1 0 0 0 0 0 0 0 0 0 0 0 0 0 0 0 0 0 0 0 0 0
1 2 2 2 2 1 0 0 0 0 0 0 0 0 0 0 0 0 0 0 0 1 0 0 0 0 0 0 0 0 0 0 0 0 0 0 0 0 0 0 0 0 0
1 1 2 2 1 0 0 0 0 0 0 0 0 0 0 0 0 0 0 0 0 0 0 0 0 0 0 0 0 0 0 0 0 0 0 0 0 0 0 0 0 0 0
0 1 1 1 1 0 0 0 0 0 0 0 0 0 0 0 0 0 0 0 0 0 0 0 0 0 0 0 0 0 0 0 0 0 0 0 0 0 0 0 0 0 0
0 0 0 0 0 0 0 0 0 0 0 0 0 0 0 0 0 0 0 0 0 0 0 0 0 0 0 0 0 0 0 0 0 0 0 0 0 0 0 0 0 0 0
0 0 0 0 0 0 0 0 0 0 0 0 0 0 0 0 0 0 0 0 0 0 0 0 0 0 0 0 0 0 0 0 0 0 0 0 0 0 0 0 0 0 0
0 0 0 0 0 0 0 0 0 0 0 0 0 0 0 0 0 0 0 0 0 0 0 0 0 0 0 0 0 0 0 0 0 0 0 0 0 0 0 0 0 0 0
0 0 0 0 0 0 0 0 0 0 0 0 0 0 0 0 0 0 0 0 0 0 0 0 0 0 0 0 0 0 0 0 0 0 0 0 0 0 0 0 0 0 0
0 0 0 0 0 0 0 0 0 0 0 0 0 0 0 0 0 0 0 0 0 0 0 0 0 0 0 0 0 0 0 0 0 0 0 0 0 0 0 0 0 0 0
0 0 0 0 0 0 0 0 0 0 0 0 0 0 0 0 0 0 0 0 0 0 0 0 0 0 0 0 0 0 0 0 0 0 0 0 0 0 0 0 0 0 0
0 0 0 0 0 0 0 0 0 0 0 0 0 0 0 0 0 0 0 0 0 0 0 0 0 0 0 0 0 0 0 0 0 0 0 0 0 0 0 0 0 0 0
0 0 0 0 0 0 0 0 0 0 0 0 0 0 0 0 0 0 0 0 0 0 0 0 0 0 0 0 0 0 0 0 0 0 0 0 0 0 0 0 0 0 0
0 0 0 0 0 0 0 0 0 0 0 0 0 0 0 0 0 0 0 0 0 0 0 0 0 0 0 0 0 0 0 0 0 0 0 0 0 0 0 0 0 0 0
0 0 0 0 0 0 0 0 0 0 0 0 0 0 0 0 0 0 0 0 0 0 0 0 0 0 0 0 0 0 0 0 0 0 0 0 0 0 0 0 0 0 0
0 0 0 0 0 0 0 0 0 0 0 0 0 0 0 0 0 0 0 0 0 0 0 0 0 0 0 0 0 0 0 0 0 0 0 0 0 0 0 0 0 0 0
0 0 0 0 0 0 0 0 0 0 0 0 0 0 0 0 0 0 0 0 0 0 0 0 0 0 0 0 0 0 0 0 0 0 0 0 0 0 0 0 0 0 0
0 0 0 0 0 0 0 0 0 0 0 0 0 0 0 0 0 0 0 0 0 0 0 0 0 0 0 0 0 0 0 0 0 0 0 0 0 0 0 0 0 0 0
0 0 0 0 0 0 0 0 0 0 0 0 0 0 0 0 0 0 0 0 0 0 0 0 0 0 0 0 0 0 0 0 0 0 0 0 0 0 0 0 0 0 0
0 0 0 0 0 0 0 0 0 0 0 0 0 0 0 0 0 0 0 0 0 0 0 0 0 0 0 0 0 0 0 0 0 0 0 0 0 0 0 0 0 0 0
0 0 0 0 0 0 0 0 0 0 0 0 0 0 0 0 0 0 0 0 0 0 0 0 0 0 0 0 0 0 0 0 0 0 0 0 0 0 0 0 0 0 0
0 0 0 0 0 0 0 0 0 0 0 0 0 0 0 0 0 0 0 0 0 0 0 0 0 0 0 0 0 0 0 0 0 0 0 0 0 0 0 0 0 0 0
0 0 0 0 0 0 0 0 0 0 0 0 0 0 0 0 0 0 0 0 0 0 0 0 0 0 0 0 0 0 0 0 0 0 0 0 0 0 0 0 0 0 0
0 0 0 0 0 0 0 0 0 0 0 0 0 0 0 0 0 0 0 0 0 0 0 0 0 0 0 0 0 0 0 0 0 0 0 0 0 0 0 0 0 0 0
0 0 0 0 0 0 0 0 0 0 0 0 0 0 0 0 0 0 0 0 0 0 0 0 0 0 0 0 0 0 0 0 0 0 0 0 0 0 0 0 0 0 0
Wind_Speed
2 1 1 1 1 1 2 1 2 2 2 1 1 1 1 1 1 1 1 1 1 1 2 2 2 2 2 2 2 3 3 2 2 2 2 2 2 2 2 1 2 2 2
1 0 0 1 0 1 1 1 2 1 2 1 0 0 0 0 0 1 1 1 0 1 1 2 2 1 2 3 3 3 2 1 1 2 2 1 1 2 1 1 1 1 2
3 2 1 1 1 0 0 1 1 1 1 1 1 2 1 1 1 2 2 2 1 0 1 1 2 2 2 3 3 3 3 2 1 1 3 3 2 1 1 1 1 1 1
3 2 2 2 1 1 0 0 1 1 1 1 2 2 1 1 0 1 1 2 1 1 1 1 1 2 2 3 3 3 2 3 3 1 0 1 3 3 1 1 1 1 0
4 3 3 2 1 0 0 0 1 1 1 1 2 2 1 0 0 0 1 1 1 1 1 1 1 1 1 2 3 3 2 2 3 2 2 1 1 1 2 2 1 1 1
3 2 1 1 0 0 0 0 0 0 1 1 1 2 2 1 1 0 1 1 1 1 1 1 1 2 2 2 2 3 3 3 3 2 2 3 3 3 3 3 3 2 2
3 2 1 1 1 0 0 0 1 0 0 1 1 1 2 2 2 2 1 1 1 1 2 2 1 1 2 2 2 2 2 3 4 4 3 3 3 3 3 3 2 2 1
2 2 2 2 1 1 1 1 1 0 1 1 1 1 1 1 1 1 1 2 2 2 2 2 2 2 2 2 2 2 3 2 3 3 3 3 3 3 3 3 3 2 2
2 2 1 1 1 1 1 1 1 1 1 1 1 1 1 1 1 1 1 2 2 2 2 2 2 2 2 2 2 2 3 3 3 3 3 3 2 3 3 3 4 4 4
1 1 1 1 1 1 1 1 1 1 1 1 1 1 1 1 1 1 2 2 2 2 2 2 2 2 2 2 2 2 3 3 3 3 3 3 2 3 3 4 4 4 4
2 2 1 1 0 1 1 1 1 1 1 1 1 1 1 1 1 1 2 2 2 2 3 3 3 3 3 3 3 3 3 4 3 3 4 5 4 3 3 4 4 4 4
2 1 1 0 0 1 1 1 2 1 1 1 1 1 1 1 1 2 2 2 2 3 3 3 3 3 3 3 4 4 4 4 5 4 4 5 4 5 4 4 5 5 5
1 0 0 0 1 1 1 1 2 2 1 1 1 1 1 1 2 2 2 2 3 3 3 3 3 4 4 4 5 5 5 5 5 5 5 5 5 6 5 5 5 5 4
1 1 1 1 1 1 1 1 2 2 2 1 1 1 2 2 2 2 2 2 3 3 3 4 4 4 4 5 5 5 5 5 5 5 6 6 6 7 6 6 6 5 5
2 2 2 1 1 1 1 1 2 2 2 1 1 2 2 2 2 2 3 3 3 3 3 4 4 4 4 5 5 5 5 6 6 6 6 6 8 9 8 6 5 6 5
3 2 2 2 2 2 2 2 2 3 2 2 2 2 2 3 3 3 3 3 3 3 3 3 4 5 4 8 9 7 6 6 6 6 6 7 8 10 11 12 11 10 8
2 2 2 2 2 2 2 2 2 3 2 2 2 2 3 3 3 4 3 3 3 3 4 4 4 5 6 10 10 10 6 6 6 6 6 6 6 8 6 9 11 11 13
2 2 1 1 1 1 1 2 2 2 2 2 2 3 3 3 3 3 4 4 3 3 4 4 5 5 7 10 10 11 6 5 6 6 6 6 6 6 6 6 7 7 9
1 1 1 1 1 1 1 1 2 2 2 3 3 3 3 3 3 4 4 4 4 4 4 4 4 4 6 10 10 10 5 5 6 6 7 7 7 10 11 7 7 7 7
1 1 1 1 1 1 1 1 1 2 3 4 4 4 3 3 4 4 4 4 4 4 4 5 4 4 6 10 11 10 4 5 5 5 6 10 10 12 12 8 7 8 7
1 1 1 1 1 1 1 1 2 3 4 4 4 4 4 4 4 3 3 4 4 4 4 5 5 5 6 9 11 10 5 4 5 5 5 6 11 13 13 11 7 9 7
2 1 1 1 2 1 1 2 3 4 4 4 4 4 4 4 3 3 4 4 4 4 4 4 5 4 6 8 9 11 10 8 5 5 5 6 11 13 13 10 9 11 8
1 1 1 1 2 1 1 2 4 4 4 4 4 4 4 4 3 3 3 3 3 3 4 4 5 5 5 6 11 12 11 11 6 5 8 10 12 11 8 10 11 8 4
1 1 1 1 2 2 2 2 3 3 3 4 4 4 4 4 3 3 3 3 3 3 4 4 5 5 5 5 5 5 6 8 7 5 7 10 10 7 6 6 5 4 3
1 1 1 1 2 2 3 3 3 3 3 4 4 4 4 3 3 3 3 4 4 4 5 4 4 5 5 7 11 8 5 4 4 4 3 2 3 3 3 3 3 3 2
1 1 1 2 3 3 4 3 3 2 3 4 4 3 3 3 3 4 4 7 7 10 11 10 9 7 10 13 13 13 12 11 8 5 3 3 3 3 3 3 3 2 3
Wind_Direction
231 177 106 66 96 98 91 94 85 71 69 70 53 33 60 45 55 46 50 50 92 104 119 123 125 134 140 143 134 128 110 105 125 99 71 34 43 63 53 46 53 45 43
245 201 104 77 46 155 135 125 109 95 84 75 116 279 212 132 81 31 33 21 65 118 120 137 147 155 150 148 146 145 129 136 154 132 121 58 357 8 35 41 62 49 43
221 230 230 239 247 298 270 166 140 115 95 86 86 52 54 59 42 21 7 359 350 335 146 155 155 164 175 177 178 173 161 168 212 177 150 158 199 263 326 2 37 53 67
221 217 218 233 241 257 297 234 145 116 103 115 116 128 141 149 263 290 315 336 355 6 28 140 159 175 188 190 192 193 194 168 182 204 207 157 156 157 223 306 328 318 250
214 214 213 220 238 253 225 256 154 128 121 140 147 148 153 130 100 34 353 340 339 348 338 170 164 175 199 211 202 202 200 191 187 190 182 154 139 157 166 222 253 285 261
215 218 214 163 117 128 123 209 134 98 140 145 155 152 164 150 124 60 317 316 316 324 336 280 209 199 201 214 215 207 208 208 201 205 201 184 179 183 179 202 217 238 254
201 204 193 201 198 218 233 212 181 328 319 197 184 173 175 179 180 199 223 266 291 301 292 311 268 239 222 223 225 207 216 218 209 207 220 225 213 187 181 188 211 240 268
205 209 215 219 227 236 243 240 227 240 284 264 248 204 177 189 208 221 232 240 253 266 274 273 279 271 258 235 228 224 222 219 227 228 220 231 231 208 193 185 185 213 254
214 218 229 232 241 242 244 232 234 234 258 265 286 257 204 212 229 245 251 251 269 279 280 278 282 280 265 246 236 235 225 218 226 231 230 234 246 228 212 199 194 190 216
222 225 237 269 290 302 308 301 242 250 260 258 246 270 251 247 246 244 256 267 278 278 268 274 277 280 265 251 236 254 236 225 230 229 228 238 244 243 224 209 207 208 210
222 230 245 266 289 350 339 334 315 302 299 279 273 275 278 275 263 259 264 273 283 277 266 265 265 270 264 249 232 246 241 234 239 237 229 233 232 236 235 221 214 213 209
207 212 213 222 349 330 330 320 316 307 305 299 298 288 288 288 268 275 279 280 282 278 273 268 261 258 260 250 236 241 244 234 238 241 239 238 233 233 237 226 222 220 214
197 184 207 241 263 289 312 311 312 305 317 314 305 306 303 301 288 286 289 284 281 282 277 268 258 258 257 254 244 237 244 239 237 237 239 241 233 237 238 234 227 226 225
215 223 251 269 279 291 298 312 319 315 311 314 302 302 301 297 295 297 298 289 281 275 271 270 265 263 260 258 250 242 249 246 242 239 237 237 232 234 232 235 230 222 221
235 234 239 253 276 295 307 313 316 321 316 306 306 307 311 312 312 311 307 301 295 288 279 275 273 270 260 254 254 241 245 243 244 244 241 242 241 238 236 236 232 221 219
254 249 240 247 263 278 294 309 313 318 323 315 316 322 327 329 325 317 311 308 308 304 297 287 279 273 268 266 263 254 245 242 241 245 247 247 248 247 248 249 245 233 221
260 253 242 244 256 263 275 286 305 319 327 323 328 332 328 325 322 319 319 310 305 306 301 292 284 277 279 278 271 262 254 243 243 243 245 249 248 249 244 249 252 248 243
270 281 264 270 284 289 317 327 332 328 328 327 330 333 327 319 318 316 311 304 301 299 294 291 283 279 280 284 278 272 260 247 243 244 243 243 247 245 246 244 247 247 244
291 301 302 279 310 323 330 347 338 333 337 330 324 323 318 315 317 314 307 305 306 304 296 290 290 289 290 291 286 280 261 254 248 248 247 245 242 249 250 245 244 251 255
15 358 1 35 11 330 340 359 327 333 325 317 312 311 310 307 305 303 304 306 302 300 301 299 296 292 292 293 289 282 261 256 255 253 249 250 252 251 250 243 237 242 246
22 23 41 38 329 326 354 339 331 315 310 315 315 314 311 306 301 303 307 309 309 313 309 303 301 295 293 296 293 288 272 254 254 254 252 251 258 258 256 252 241 243 243
20 26 36 6 353 4 5 331 317 313 319 321 317 313 312 311 315 316 312 311 311 309 307 305 304 297 294 301 298 294 291 283 258 256 256 257 264 263 262 258 256 255 248
352 8 37 0 348 350 342 308 311 321 325 323 316 310 310 308 310 307 307 310 312 308 305 305 305 306 306 303 304 299 297 295 285 266 268 268 265 266 263 260 257 250 226
349 5 29 345 323 329 324 306 314 324 317 312 310 308 309 310 312 304 300 299 299 302 303 304 303 304 305 306 304 301 295 290 288 280 275 275 274 272 270 269 260 238 219
349 353 323 301 303 313 311 312 317 318 310 305 306 309 308 304 301 301 294 295 281 291 299 293 292 299 300 307 311 309 299 289 277 280 268 268 264 257 257 255 252 236 228
331 329 317 306 305 309 306 309 310 303 298 306 310 308 310 308 308 307 308 305 307 308 308 309 309 298 302 308 310 311 310 306 299 290 273 263 258 256 252 248 248 241 233